• In Kazakhstan
  • List of Countries
  • For 7 days
  • Water Temperature
  • Satellite Maps
  • Weather Map
  • News
  • Weather Widgets
  • user-avatar
    Login

    Hourly Weather Adana

    Today, 17 August, Thursday

    Time Temperature Precipitation Wind Pressure Humidity
    00:00 +29°C° 0 mm 1 mps 750 mmHg 79%
    01:00 +28°C° 0 mm 1 mps 750 mmHg 80%
    02:00 +28°C° 0 mm 1 mps 750 mmHg 81%
    03:00 +28°C° 0 mm 1 mps 750 mmHg 82%
    04:00 +28°C° 0 mm 1 mps 750 mmHg 83%
    05:00 +28°C° 0 mm 1 mps 750 mmHg 84%
    06:00 +29°C° 0 mm 1 mps 751 mmHg 76%
    07:00 +31°C° 0 mm 2 mps 751 mmHg 69%
    08:00 +32°C° 0 mm 2 mps 751 mmHg 61%
    09:00 +35°C° 0 mm 3 mps 751 mmHg 55%
    10:00 +36°C° 0 mm 3 mps 751 mmHg 48%
    11:00 +38°C° 0 mm 4 mps 751 mmHg 42%
    12:00 +38°C° 0 mm 4 mps 751 mmHg 40%
    13:00 +40°C° 0 mm 5 mps 750 mmHg 38%
    14:00 +40°C° 0 mm 5 mps 750 mmHg 37%
    15:00 +39°C° 0 mm 5 mps 750 mmHg 39%
    16:00 +37°C° 0 mm 5 mps 750 mmHg 41%
    17:00 +36°C° 0 mm 5 mps 750 mmHg 43%
    18:00 +34°C° 0 mm 4 mps 751 mmHg 51%
    19:00 +31°C° 0 mm 3 mps 751 mmHg 59%
    20:00 +30°C° 0 mm 2 mps 751 mmHg 67%
    21:00 +29°C° 0 mm 2 mps 752 mmHg 70%
    22:00 +29°C° 0 mm 2 mps 752 mmHg 72%
    23:00 +28°C° 0 mm 2 mps 752 mmHg 75%

    Tomorrow, 18 August, Friday

    Time Temperature Precipitation Wind Pressure Humidity
    00:00 +28°C° 0 mm 2 mps 752 mmHg 76%
    01:00 +28°C° 0 mm 2 mps 752 mmHg 77%
    02:00 +28°C° 0 mm 2 mps 752 mmHg 78%
    03:00 +27°C° 0 mm 1 mps 752 mmHg 79%
    04:00 +27°C° 0 mm 1 mps 752 mmHg 80%
    05:00 +27°C° 0 mm 1 mps 752 mmHg 81%
    06:00 +28°C° 0 mm 1 mps 752 mmHg 75%
    07:00 +30°C° 0 mm 2 mps 753 mmHg 68%
    08:00 +31°C° 0 mm 2 mps 753 mmHg 62%
    09:00 +34°C° 0 mm 3 mps 753 mmHg 58%
    10:00 +35°C° 0 mm 3 mps 753 mmHg 53%
    11:00 +36°C° 0 mm 4 mps 753 mmHg 49%
    12:00 +36°C° 0 mm 4 mps 753 mmHg 48%
    13:00 +37°C° 0 mm 5 mps 753 mmHg 47%
    14:00 +37°C° 0 mm 5 mps 753 mmHg 46%
    15:00 +36°C° 0 mm 5 mps 753 mmHg 49%
    16:00 +35°C° 0 mm 5 mps 752 mmHg 53%
    17:00 +35°C° 0 mm 5 mps 752 mmHg 56%
    18:00 +33°C° 0 mm 4 mps 753 mmHg 62%
    19:00 +31°C° 0 mm 3 mps 753 mmHg 69%
    20:00 +29°C° 0 mm 2 mps 754 mmHg 75%
    21:00 +29°C° 0 mm 2 mps 754 mmHg 77%
    22:00 +29°C° 0 mm 1 mps 754 mmHg 79%
    23:00 +28°C° 0 mm 1 mps 754 mmHg 81%

    Day after tomorrow, 19 August, Saturday

    Time Temperature Precipitation Wind Pressure Humidity
    00:00 +28°C° 0 mm 1 mps 754 mmHg 81%
    01:00 +28°C° 0 mm 1 mps 754 mmHg 82%
    02:00 +28°C° 0 mm 1 mps 754 mmHg 82%
    03:00 +27°C° 0 mm 1 mps 754 mmHg 83%
    04:00 +27°C° 0 mm 1 mps 754 mmHg 84%
    05:00 +27°C° 0 mm 1 mps 754 mmHg 85%
    06:00 +28°C° 0 mm 1 mps 754 mmHg 78%
    07:00 +30°C° 0 mm 1 mps 755 mmHg 72%
    08:00 +31°C° 0 mm 1 mps 755 mmHg 65%
    09:00 +34°C° 0 mm 2 mps 755 mmHg 59%
    10:00 +35°C° 0 mm 3 mps 755 mmHg 53%
    11:00 +36°C° 0 mm 3 mps 755 mmHg 47%
    12:00 +37°C° 0 mm 4 mps 755 mmHg 45%
    13:00 +38°C° 0 mm 4 mps 754 mmHg 43%
    14:00 +39°C° 0 mm 5 mps 754 mmHg 41%
    15:00 +37°C° 0 mm 5 mps 754 mmHg 45%
    16:00 +36°C° 0 mm 4 mps 754 mmHg 48%
    17:00 +35°C° 0 mm 4 mps 754 mmHg 52%
    18:00 +33°C° 0 mm 3 mps 754 mmHg 60%
    19:00 +31°C° 0 mm 3 mps 755 mmHg 67%
    20:00 +29°C° 0 mm 2 mps 755 mmHg 75%
    21:00 +28°C° 0 mm 1 mps 755 mmHg 77%
    22:00 +28°C° 0 mm 1 mps 755 mmHg 79%
    23:00 +28°C° 0 mm 1 mps 755 mmHg 81%

    20 August, Sunday

    Time Temperature Precipitation Wind Pressure Humidity
    00:00 +27°C° 0 mm 1 mps 755 mmHg 81%
    01:00 +27°C° 0 mm 1 mps 755 mmHg 81%
    02:00 +27°C° 0 mm 1 mps 755 mmHg 82%
    03:00 +26°C° 0 mm 1 mps 755 mmHg 82%
    04:00 +26°C° 0 mm 1 mps 755 mmHg 83%
    05:00 +26°C° 0 mm 1 mps 755 mmHg 84%
    06:00 +28°C° 0 mm 1 mps 755 mmHg 76%
    07:00 +29°C° 0 mm 1 mps 755 mmHg 68%
    08:00 +31°C° 0 mm 1 mps 755 mmHg 60%
    09:00 +34°C° 0 mm 2 mps 755 mmHg 53%
    10:00 +36°C° 0 mm 2 mps 755 mmHg 46%
    11:00 +37°C° 0 mm 3 mps 755 mmHg 39%
    12:00 +38°C° 0 mm 3 mps 754 mmHg 36%
    13:00 +40°C° 0 mm 4 mps 754 mmHg 32%
    14:00 +41°C° 0 mm 4 mps 753 mmHg 29%
    15:00 +40°C° 0 mm 4 mps 753 mmHg 32%
    16:00 +37°C° 0 mm 4 mps 753 mmHg 36%
    17:00 +36°C° 0 mm 4 mps 753 mmHg 39%
    18:00 +34°C° 0 mm 3 mps 753 mmHg 47%
    19:00 +31°C° 0 mm 2 mps 754 mmHg 55%
    20:00 +29°C° 0 mm 1 mps 754 mmHg 63%
    21:00 +28°C° 0 mm 1 mps 754 mmHg 65%
    22:00 +28°C° 0 mm 1 mps 754 mmHg 66%
    23:00 +27°C° 0 mm 1 mps 754 mmHg 68%

    21 August, Monday

    Time Temperature Precipitation Wind Pressure Humidity
    00:00 +27°C° 0 mm 1 mps 754 mmHg 69%
    01:00 +26°C° 0 mm 1 mps 754 mmHg 70%
    02:00 +26°C° 0 mm 1 mps 754 mmHg 70%
    03:00 +26°C° 0 mm 1 mps 754 mmHg 70%
    04:00 +25°C° 0 mm 1 mps 754 mmHg 69%
    05:00 +25°C° 0 mm 1 mps 754 mmHg 69%
    06:00 +28°C° 0 mm 1 mps 754 mmHg 58%
    07:00 +30°C° 0 mm 1 mps 754 mmHg 48%
    08:00 +32°C° 0 mm 1 mps 754 mmHg 38%
    09:00 +34°C° 0 mm 1 mps 754 mmHg 33%
    10:00 +37°C° 0 mm 2 mps 754 mmHg 28%
    11:00 +38°C° 0 mm 3 mps 754 mmHg 23%
    12:00 +39°C° 0 mm 3 mps 753 mmHg 23%
    13:00 +40°C° 0 mm 4 mps 753 mmHg 23%
    14:00 +41°C° 0 mm 4 mps 752 mmHg 22%
    15:00 +40°C° 0 mm 4 mps 752 mmHg 27%
    16:00 +38°C° 0 mm 4 mps 752 mmHg 31%
    17:00 +36°C° 0 mm 4 mps 752 mmHg 36%
    18:00 +34°C° 0 mm 3 mps 753 mmHg 45%
    19:00 +31°C° 0 mm 2 mps 753 mmHg 55%
    20:00 +29°C° 0 mm 2 mps 753 mmHg 64%
    21:00 +28°C° 0 mm 1 mps 753 mmHg 65%
    22:00 +28°C° 0 mm 1 mps 753 mmHg 67%
    23:00 +27°C° 0 mm 1 mps 754 mmHg 69%

    22 August, Tuesday

    Time Temperature Precipitation Wind Pressure Humidity
    00:00 +27°C° 0 mm 1 mps 753 mmHg 70%
    01:00 +26°C° 0 mm 1 mps 753 mmHg 70%
    02:00 +26°C° 0 mm 1 mps 753 mmHg 71%
    03:00 +26°C° 0 mm 1 mps 753 mmHg 72%
    04:00 +25°C° 0 mm 1 mps 754 mmHg 73%
    05:00 +25°C° 0 mm 1 mps 754 mmHg 73%
    06:00 +27°C° 0 mm 1 mps 754 mmHg 64%
    07:00 +30°C° 0 mm 1 mps 754 mmHg 56%
    08:00 +32°C° 0 mm 1 mps 754 mmHg 47%
    09:00 +35°C° 0 mm 2 mps 754 mmHg 41%
    10:00 +37°C° 0 mm 2 mps 753 mmHg 35%
    11:00 +39°C° 0 mm 3 mps 753 mmHg 29%
    12:00 +39°C° 0 mm 3 mps 753 mmHg 28%
    13:00 +41°C° 0 mm 4 mps 752 mmHg 27%
    14:00 +42°C° 0 mm 5 mps 752 mmHg 26%
    15:00 +40°C° 0 mm 5 mps 752 mmHg 31%
    16:00 +39°C° 0 mm 5 mps 752 mmHg 35%
    17:00 +37°C° 0 mm 5 mps 751 mmHg 40%
    18:00 +35°C° 0 mm 4 mps 752 mmHg 47%
    19:00 +32°C° 0 mm 2 mps 752 mmHg 54%
    20:00 +29°C° 0 mm 1 mps 752 mmHg 61%
    21:00 +29°C° 0 mm 1 mps 752 mmHg 62%
    22:00 +29°C° 0 mm 1 mps 752 mmHg 64%
    23:00 +28°C° 0 mm 1 mps 753 mmHg 65%
    Show more